Weather History for Pituffik, Greenland

Change the Weather History Date:

Sunday, January 20, 2013

  Actual Average Record
Temperature  
Mean Temperature 8 °F -  
Max Temperature 15 °F -4 °F 17 °F (2003)
Min Temperature 0 °F -18 °F -31 °F (2000)
Degree Days  
Heating Degree Days 58    
Moisture  
Dew Point -2 °F    
Average Humidity 77    
Maximum Humidity 92    
Minimum Humidity 46    
Precipitation  
Precipitation 0.00 in 0.01 in - ()
Sea Level Pressure  
Sea Level Pressure 29.60 in    
Wind  
Wind Speed 6 mph ()    
Max Wind Speed 20 mph    
Max Gust Speed -    
Visibility 4.4 miles    
Events Fog , Snow    
Averages and records for this station are not official NWS values.
T = Trace of Precipitation, MM = Missing Value Source: Averaged Metar Reports

Daily Weather History Graph

Daily Weather History Graph

Search for Another Location

Airport:

Trip Planner

Search our weather history database for the weather conditions in past years. The results will help you decide how hot, cold, wet, or windy it might be!

Date:

Astronomy

Dec. 31, 1969 Rise Set
Actual Time Sun does not rise Sun does not rise
Civil Twilight 12:13 PM AST 1:18 PM AST
Nautical Twilight 9:05 AM AST 4:28 PM AST
Astronomical Twilight 7:11 AM AST 6:22 PM AST
Moon No Moon Rise No Moon Set
Length of Visible Light 1h 04m
Length of Day
0h 00m
Waxing Gibbous, 66% of the Moon is Illuminated
Jan 20
Waxing Gibbous
Jan 27
Full
Feb 3
Last Quarter
Feb 10
New
Feb 17
First Quarter

Hourly Weather History & Observations

Time (AST) Temp. Windchill Dew Point Humidity Pressure Visibility Wind Dir Wind Speed Gust Speed Precip Events Conditions
12:58 AM 15.6 °F - 5.2 °F 63% 29.38 in 6.2 mi Variable 1.2 mph - N/A   Scattered Clouds
1:58 AM 13.8 °F 8.0 °F 5.7 °F 70% 29.40 in 6.2 mi West 3.5 mph - N/A   Clear
2:58 AM 11.8 °F 3.9 °F 5.2 °F 75% 29.43 in 6.2 mi Variable 4.6 mph - N/A   Clear
3:58 AM 9.7 °F 1.4 °F 5.2 °F 82% 29.45 in 6.2 mi SW 4.6 mph - N/A   Clear
4:58 AM 7.5 °F - 3.4 °F 83% 29.47 in 6.2 mi Calm Calm - N/A   Clear
5:58 AM 8.6 °F 2.0 °F 4.6 °F 84% 29.50 in 6.2 mi West 3.5 mph - N/A   Clear
6:58 AM 6.4 °F -2.4 °F 3.4 °F 87% 29.53 in 6.2 mi WSW 4.6 mph - N/A   Clear
7:58 AM 8.1 °F - 4.6 °F 86% 29.56 in 6.2 mi Calm Calm - N/A   Clear
8:25 AM -0.4 °F -14.7 °F -4.0 °F 85% 29.60 in 6.2 mi East 8.1 mph - N/A   Partly Cloudy
8:34 AM 1.4 °F -9.9 °F -2.2 °F 85% 29.61 in 6.2 mi East 5.8 mph - N/A   Mostly Cloudy
8:58 AM 2.5 °F - -1.1 °F 85% 29.58 in 6.2 mi East 2.3 mph - N/A   Overcast
9:27 AM -0.4 °F -14.7 °F -4.0 °F 85% 29.62 in 6.2 mi East 8.1 mph - N/A   Scattered Clouds
9:32 AM -0.4 °F -14.7 °F -4.0 °F 85% 29.62 in 2.5 mi East 8.1 mph - N/A   Haze
9:33 AM 1.4 °F -11.3 °F -4.0 °F 78% 29.62 in - ENE 6.9 mph - N/A   Scattered Clouds
9:34 AM 1.4 °F -12.5 °F -4.0 °F 78% 29.62 in 1.5 mi ENE 8.1 mph - N/A   Scattered Clouds
9:36 AM 1.4 °F -12.5 °F -2.2 °F 85% 29.62 in 1.0 mi East 8.1 mph - N/A   Mist
9:37 AM 1.4 °F -12.5 °F -2.2 °F 85% 29.62 in 0.7 mi East 8.1 mph - N/A   Mist
9:41 AM 1.4 °F -13.5 °F -2.2 °F 85% 29.62 in 0.5 mi East 9.2 mph - N/A Fog Light Freezing Fog
9:44 AM 1.4 °F -14.5 °F -2.2 °F 85% 29.62 in 0.5 mi East 10.4 mph - N/A Fog Light Freezing Fog
9:58 AM 1.6 °F -15.9 °F -2.2 °F 84% 29.60 in 0.5 mi East 12.7 mph - N/A   Haze
9:59 AM 1.4 °F -15.3 °F -2.2 °F 85% 29.63 in 0.7 mi East 11.5 mph - N/A   Haze
10:03 AM 1.4 °F -14.5 °F -2.2 °F 85% 29.63 in 1.0 mi East 10.4 mph - N/A   Haze
10:06 AM 1.4 °F -13.5 °F -2.2 °F 85% 29.63 in 1.2 mi ENE 9.2 mph - N/A   Clear
10:07 AM 1.4 °F -14.5 °F -2.2 °F 85% 29.63 in 1.2 mi ENE 10.4 mph - N/A   Clear
10:08 AM 1.4 °F -14.5 °F -2.2 °F 85% 29.63 in 1.0 mi ENE 10.4 mph - N/A   Clear
10:18 AM -0.4 °F -16.7 °F -4.0 °F 85% 29.63 in 1.2 mi East 10.4 mph - N/A   Haze
10:19 AM -0.4 °F -18.4 °F -5.8 °F 78% 29.63 in 1.5 mi East 12.7 mph - N/A   Haze
10:20 AM -0.4 °F -19.2 °F -5.8 °F 78% 29.63 in 1.7 mi East 13.8 mph - N/A   Haze
10:21 AM -0.4 °F -19.2 °F -5.8 °F 78% 29.63 in - East 13.8 mph - N/A   Haze
10:22 AM -0.4 °F -19.9 °F -5.8 °F 78% 29.63 in 2.5 mi East 15.0 mph - N/A   Haze
10:23 AM -0.4 °F -20.5 °F -5.8 °F 78% 29.63 in 3.7 mi East 16.1 mph - N/A   Haze
10:58 AM 0.5 °F -13.6 °F -3.6 °F 83% 29.61 in 6.2 mi East 8.1 mph - N/A   Clear
11:58 AM 6.8 °F -12.4 °F 3.6 °F 87% 29.60 in 6.2 mi East 18.4 mph - N/A   Clear
12:03 PM 6.8 °F -12.9 °F 5.0 °F 92% 29.63 in 6.2 mi ESE 19.6 mph - N/A Snow Light Snow
12:14 PM 8.6 °F -8.9 °F 5.0 °F 85% 29.64 in 6.2 mi ESE 16.1 mph - N/A   Clear
12:58 PM 7.0 °F -12.1 °F 3.4 °F 85% 29.61 in 6.2 mi East 18.4 mph - 0.00 in   Clear
1:58 PM 6.4 °F - 2.8 °F 85% 29.62 in 6.2 mi Calm Calm - N/A   Clear
2:58 PM 6.1 °F - -2.4 °F 68% 29.63 in 6.2 mi Calm Calm - N/A   Clear
3:58 PM 5.2 °F - -2.4 °F 71% 29.64 in 6.2 mi Calm Calm - N/A   Clear
4:58 PM 6.6 °F -9.5 °F -5.6 °F 57% 29.65 in 6.2 mi East 12.7 mph - N/A   Clear
5:58 PM 12.7 °F -4.6 °F -3.5 °F 48% 29.65 in 6.2 mi East 18.4 mph - N/A   Clear
6:58 PM 12.6 °F 2.2 °F -4.7 °F 46% 29.66 in 6.2 mi East 6.9 mph - N/A   Clear
7:58 PM 5.2 °F - -7.2 °F 57% 29.66 in 6.2 mi Calm Calm - N/A   Clear
8:58 PM 0.9 °F -10.5 °F -10.7 °F 58% 29.65 in 6.2 mi East 5.8 mph - N/A   Clear
9:58 PM -0.9 °F -11.0 °F -11.6 °F 61% 29.66 in 6.2 mi ESE 4.6 mph - N/A   Clear
10:58 PM 2.7 °F -12.0 °F -9.0 °F 58% 29.65 in 6.2 mi East 9.2 mph - N/A   Clear
11:58 PM 3.0 °F -16.7 °F -9.2 °F 57% 29.66 in 6.2 mi East 17.3 mph - N/A   Clear